NOAA 16 DEB, 41067

Orbit data source: Space-Track

NOAA 16 DEB, 41067 is space debris in SSO originally from a launch on Thu, 21 Sep 2000 UTC launched from the Air Force Western Test Range (AFWTR). Debris objects in space refer to the collection of defunct objects orbiting the Earth. Examples of debris include non-operational satellites, rocket bodies, and fragments generated from explosions, collisions, or faulty payload assembly.

Loading next visibility...
Identifier
41067, 2000-055AA
Orbit
SSO
Country
Flag of USUS
Related business
Manufacturer
Unknown
Mission
Spacecraft
Bus & Motor
Unknown
Mass
Unknown
Launch date (UTC)
2000-09-21 (26 years ago)
Launch vehicle
Unknown
Launch site
Air Force Western Test Range (AFWTR)
Object type
Payload
Rocket body
Debris
Shape & HBR
Unknown shape, 0.1 m
Radar Cross Section
Small (<0.1 m²)

Expand to show TLE details & history
Last TLE update: 19 hours ago

TLE from 19 hours ago
0 NOAA 16 DEB
1 41067U 00055AA  26126.37089663  .00000859  00000-0  44022-3 0  9994
2 41067  98.5199 161.4928 0005135  61.0320 299.1370 14.17981381538884
Epoch: 2026-05-06T08:54Z
TLE epoch observation values (Epoch: 2026-05-06T08:54:05.468Z)
Latitude
-0.00007°
Longitude
163.73767°
Altitude
833.304 km
Speed
7.437 km/s
True Right ascension
10h 45m 58s
True Declination
0° 00' 00"
Sunlit
Object was in daylight at epoch
Visualization orbit readout
Latitude
Unknown
Longitude
Unknown
Altitude
Unknown
Speed
Unknown
Apparent Right ascension
Unknown
Apparent Declination
Unknown
Sunlit
N/A
Visualization observer readout
Local Sidereal Time
12:16:27
Azimuth
Unknown
Elevation
Unknown
Doppler factor
Unknown
Orbital elements
Apogee altitude
833.041 km
Perigee altitude
825.639 km
Semi-major axis
7,207.477 km
Eccentricity
0.00051
Inclination
98.5199°
RAAN
161.4928°
Arg. of periapsis
61.032°
True anomaly
299.08559°
Mean anomaly
299.137°
Eccentric anomaly
299.1113°
Mean motion
3.54706 °/min
Orbital period
101.49 mins
BSTAR
0.00044022
Loading maneuver chart data...
Computing Atmospheric mass density...
Loading historical data...
Loading historical data...
Loading historical data...
Loading historical data...
Loading historical data...
Loading historical data...
Loading historical data...

Documentation

Showing up to 5 results
|